Weather in Veliky Berezny

Ukraine / Zakarpattia District     48°53′36″N   22°27′27″E
temp.,
°C
wind,
m/s
gust,
m/s
humid.,
%
clouds,
%
prec.,
mm/h
press.,
hPa
HPBL,
m
21 april, wed
wed2100:00+3nne118895 0.0 101412
03:00+3nne118926 0.0 101410
06:00+2ne119019 0.0 101510
09:00+7ssw11719 0.0 1015264
12:00+11sw345639 0.3 10141519
15:00+11sw445960 0.6 10141421
18:00+10ssw457456 0.8 10141002
21:00+6s239699 1.8 101572
22 april, thu
thu2200:00+6sse249891 0.9 1016109
03:00+6s2599100 1.3 1016381
06:00+6s2699100 0.1 1016516
09:00+6s3697100 0.4 1016529
12:00+7ssw3996100 0.9 1016851
15:00+7s1398100 4.5 1015185
18:00+4nne3493100 7.6 1017263
21:00+2nne2394100 7.6 1019245
23 april, fri
fri2300:00+2ne1292100 0.0 101974
03:000nne21934 0.0 102017
06:00−1n22906 0.0 102127
09:00+3nnw257537 0.0 1021981
12:00+6nw355497 0.4 10211718
15:00+6nw376075 1.4 10211480
18:00+7nw3642100 0.2 10201864
21:00+3nw2275100 0.3 102351
24 april, sat
sat2400:00−1nnw239124 0.1 102555
03:00−2n11935 0.1 102510
06:00−2nnw11945 0.0 102614
09:00+3nw26454 0.0 10261303
12:00+7wnw353489 0.0 10252034
15:00+8wnw3636100 0.0 10232303
18:00+6wsw246299 0.2 10231206
21:00+3nne1192100 0.6 102484
25 april, sun
sun2500:00+3sse1299100 0.8 1023177
03:00+3sw1299100 1.8 1023461
06:00+2nw129898 0.6 1023148
09:00+2n359029 1.0 1024630
12:00+5n454625 0.0 10251542
15:00+7nnw343645 0.0 10231983
18:00+7nnw354054 0.0 10231877
21:00+1ne11667 0.0 102410